Weather History for Long Beach, CA

Change the Weather History Date:

Sunday, June 16, 2013

  Actual Average Record
Temperature  
Mean Temperature 70 °F 69 °F  
Max Temperature 78 °F 77 °F 109 °F (1981)
Min Temperature 62 °F 61 °F 54 °F (1995)
Degree Days  
Heating Degree Days 0 0  
Month to date heating degree days 0 3  
Since 1 June heating degree days 0 3  
Since 1 July heating degree days 1039 1216  
Cooling Degree Days 5 4  
Month to date cooling degree days 61 48  
Year to date cooling degree days 210 151  
Since 1 June cooling degree days 61 48  
Growing Degree Days 20 (Base 50)    
Moisture  
Dew Point 55 °F    
Average Humidity 63    
Maximum Humidity 78    
Minimum Humidity 47    
Precipitation  
Precipitation 0.00 in 0.01 in 0.45 in (1995)
Month to date precipitation T 0.06  
Year to date precipitation 2.87 8.43  
Since 1 July precipitation 6.67 12.25  
Sea Level Pressure  
Sea Level Pressure 29.98 in    
Wind  
Wind Speed 5 mph (WNW)    
Max Wind Speed 13 mph    
Max Gust Speed 22 mph    
Visibility 10 miles    
Events      
T = Trace of Precipitation, MM = Missing Value Source: NWS Daily Summary

Daily Weather History Graph

Daily Weather History Graph

Search for Another Location

Airport:

Trip Planner

Search our weather history database for the weather conditions in past years. The results will help you decide how hot, cold, wet, or windy it might be!

Date:

Astronomy

Jun. 16, 2013 Rise Set
Actual Time 5:41 AM PDT 8:05 PM PDT
Civil Twilight 5:12 AM PDT 8:34 PM PDT
Nautical Twilight 4:36 AM PDT 9:10 PM PDT
Astronomical Twilight 3:57 AM PDT 9:49 PM PDT
Moon 1:02 PM PDT (6/16) 12:31 AM PDT (6/16)
Length of Visible Light 15h 22m
Length of Day
14h 23m
Waxing Crescent, 51% of the Moon is Illuminated
Jun 16
Waxing Crescent
Jun 23
Full
Jun 29
Last Quarter
Jul 8
New
Jul 15
First Quarter

Hourly Weather History & Observations

Time (PDT) Temp. Dew Point Humidity Pressure Visibility Wind Dir Wind Speed Gust Speed Precip Events Conditions
12:29 AM 62.6 °F 55.4 °F 77% 29.98 in 10.0 mi Calm Calm - N/A   Mostly Cloudy
12:38 AM 62.6 °F 55.4 °F 77% 29.97 in 10.0 mi North 3.5 mph - N/A   Mostly Cloudy
12:53 AM 62.1 °F 55.9 °F 80% 29.98 in 10.0 mi Calm Calm - N/A   Overcast
1:53 AM 63.0 °F 55.9 °F 78% 29.97 in 10.0 mi Calm Calm - N/A   Overcast
2:53 AM 64.0 °F 55.0 °F 73% 29.97 in 9.0 mi Calm Calm - N/A   Overcast
3:53 AM 63.0 °F 55.0 °F 75% 29.97 in 9.0 mi Calm Calm - N/A   Overcast
4:53 AM 63.0 °F 55.0 °F 75% 29.98 in 9.0 mi Calm Calm - N/A   Overcast
5:04 AM 62.6 °F 55.4 °F 77% 29.98 in 9.0 mi NE 3.5 mph - N/A   Overcast
5:53 AM 64.0 °F 55.0 °F 73% 29.99 in 8.0 mi North 3.5 mph - N/A   Overcast
6:53 AM 64.0 °F 54.0 °F 70% 30.00 in 7.0 mi NE 4.6 mph - N/A   Overcast
7:53 AM 64.9 °F 54.0 °F 68% 30.02 in 8.0 mi North 4.6 mph - N/A   Overcast
8:53 AM 66.0 °F 54.0 °F 65% 30.04 in 8.0 mi Calm Calm - N/A   Mostly Cloudy
9:51 AM 69.8 °F 53.6 °F 56% 30.03 in 10.0 mi Calm Calm - N/A   Scattered Clouds
9:53 AM 69.1 °F 54.0 °F 58% 30.03 in 10.0 mi Calm Calm - N/A   Scattered Clouds
10:53 AM 73.0 °F 54.0 °F 51% 30.02 in 10.0 mi Calm Calm - N/A   Clear
11:53 AM 72.0 °F 55.0 °F 55% 30.01 in 10.0 mi SSW 8.1 mph - N/A   Clear
12:53 PM 73.0 °F 55.0 °F 53% 30.00 in 10.0 mi SSW 9.2 mph - N/A   Clear
1:53 PM 73.9 °F 55.0 °F 52% 29.99 in 10.0 mi SSW 10.4 mph - N/A   Clear
2:53 PM 75.0 °F 55.0 °F 50% 29.97 in 10.0 mi South 9.2 mph - N/A   Clear
3:53 PM 77.0 °F 55.0 °F 47% 29.97 in 10.0 mi WNW 8.1 mph - N/A   Clear
4:53 PM 77.0 °F 55.0 °F 47% 29.95 in 10.0 mi West 6.9 mph - N/A   Clear
5:53 PM 73.9 °F 55.0 °F 52% 29.95 in 10.0 mi WNW 9.2 mph - N/A   Clear
6:53 PM 70.0 °F 55.0 °F 59% 29.95 in 10.0 mi WNW 11.5 mph - N/A   Clear
7:53 PM 66.9 °F 55.9 °F 68% 29.96 in 10.0 mi NW 10.4 mph - N/A   Clear
8:53 PM 64.9 °F 55.9 °F 73% 29.96 in 10.0 mi NW 10.4 mph - N/A   Clear
9:53 PM 64.0 °F 55.9 °F 75% 29.97 in 10.0 mi NW 4.6 mph - N/A   Clear
10:53 PM 64.0 °F 55.9 °F 75% 29.97 in 10.0 mi WNW 3.5 mph - N/A   Clear
11:53 PM 63.0 °F 55.9 °F 78% 29.96 in 10.0 mi Calm Calm - N/A   Clear